Home   Weather   Happy Valley-Goose Bay   Past weeks

Flag for Canada Past Weather in Happy Valley-Goose Bay, Newfoundland and Labrador, Canada — Yesterday and Last 2 Weeks

Now
-8 °F

Light snow. Overcast.


Feels Like: -25 °F
Forecast: -20 / -5 °F
Wind: 9 mph from Northeast

Location: Goose

Current Time: Jan 16, 2017 at 8:57:13 pm

Latest Report: Jan 16, 2017 at 8:00 pm


Visibility: 5 mi

Pressure: 29.86 "Hg

Humidity: 70%

Dew Point: -15 °F

Location of Happy Valley-Goose BayLocation

Past Weather in Happy Valley-Goose Bay — Graph

°F

Happy Valley-Goose Bay Temperature Yesterday

Maximum temperature yesterday: -4 °F (at 3:00 pm)
Minimum temperature yesterday: -17 °F (at 7:00 am)
Average temperature yesterday: -11 °F

High & Low Weather Summary for the Past Weeks

 TemperatureHumidityPressure
High39 °F (Jan 11, 11:00 pm)100% (Jan 4, 10:54 pm)30.65 "Hg (Jan 4, 10:54 pm)
Low-17 °F (Jan 4, 5:00 am)46% (Jan 6, 11:00 am)28.81 "Hg (Jan 5, 2:35 pm)
Average5 °F70%29.90 "Hg
* Reported Jan 1 7:06 pm — Jan 16 7:13 pm, Happy Valley-Goose Bay, Weather by CustomWeather, © 2017

Note: Actual official high and low records may vary slightly from our data, if they occured in-between our weather recording intervals... More about our weather records

Advertising

Happy Valley-Goose Bay Weather History for the Previous 24 Hours

Scroll right to see more
 ConditionsComfort  
Time TempWeatherWind HumidityBarometerVisibility
7:13 pm
Mon, Jan 16
-8 °FLight snow. Mostly cloudy.12 mph77%29.87 "Hg3 mi
7:00 pm-6 °FLight snow. Mostly cloudy.10 mph70%29.87 "Hg4 mi
6:13 pm-6 °FLight snow. Mostly cloudy.5 mph70%29.88 "Hg6 mi
6:00 pm-6 °FLight snow. Mostly cloudy.5 mph70%29.89 "Hg5 mi
5:46 pm-6 °FLight snow. Mostly cloudy.6 mph70%29.89 "Hg4 mi
5:00 pm-8 °FLight snow. Mostly cloudy.8 mph70%29.91 "Hg6 mi
4:00 pm-6 °FLight snow. Overcast.6 mph70%29.93 "Hg4 mi
3:00 pm-6 °FLight snow. Overcast.3 mph64%29.94 "Hg5 mi
2:55 pm-6 °FLight snow. Overcast.3 mph64%29.94 "Hg5 mi
2:00 pm-6 °FLight snow. More clouds than sun.9 mph54%29.97 "Hg15 mi
1:42 pm-6 °FLight snow. Mostly cloudy.7 mph54%29.98 "Hg15 mi
1:00 pm-8 °FMostly cloudy.6 mph58%30.00 "Hg15 mi
12:00 pm-9 °FPartly sunny.2 mph53%30.05 "Hg15 mi
11:00 am-11 °FPartly sunny.3 mph63%30.09 "Hg15 mi
10:00 am-15 °FPartly sunny.6 mph63%30.13 "Hg15 mi
9:00 am-17 °FPassing clouds.7 mph63%30.14 "Hg15 mi
8:00 am-15 °FPassing clouds.7 mph63%30.16 "Hg15 mi
7:00 am-15 °FPassing clouds.8 mph63%30.16 "Hg15 mi
6:00 am-15 °FPassing clouds.14 mph63%30.16 "Hg15 mi
5:00 am-13 °FPassing clouds.9 mph57%30.16 "Hg15 mi
4:00 am-15 °FPassing clouds.12 mph63%30.17 "Hg15 mi
3:00 am-13 °FPassing clouds.14 mph57%30.16 "Hg15 mi
2:00 am-11 °FPassing clouds.10 mph58%30.16 "Hg15 mi
1:00 am-11 °FPassing clouds.16 mph58%30.15 "Hg15 mi
12:00 am-11 °FPassing clouds.5 mph58%30.14 "Hg15 mi
11:00 pm
Sun, Jan 15
-11 °FPassing clouds.7 mph58%30.16 "Hg15 mi
10:00 pm-11 °FPassing clouds.10 mph52%30.16 "Hg15 mi
9:00 pm-9 °FPassing clouds.9 mph53%30.15 "Hg15 mi
8:00 pm-9 °FPassing clouds.8 mph58%30.13 "Hg15 mi
Weather by CustomWeather, © 2017

See weather overviewHow to use our weather pages